FSF619 LFMD-LIEO

Flight info

Callsign FSF619
Flight time 1h 1m
Altitude 23000
Route LONSU DCT BEBEV DCT AJO A9 CORSI
Aircraft PC12/L-SDFGRWY/S

Departure

Time 2026-05-05 17:03
Airport Cannes Mandelieu Airport (LFMD)

Arrival

Time 2026-05-05 18:04
Airport Olbia Costa Smeralda Airport (LIEO)
Time Latitude Longitude Altitude Speed Heading
2026-05-05 16:24 43.54658 6.95367 14 ft 0 kts 173°
2026-05-05 16:56 43.54640 6.95360 14 ft 4 kts 232°
2026-05-05 16:57 43.54635 6.95331 14 ft 5 kts 264°
2026-05-05 16:57 43.54673 6.95276 14 ft 10 kts 352°
2026-05-05 16:57 43.54722 6.95268 14 ft 8 kts 352°
2026-05-05 16:57 43.54817 6.95252 14 ft 16 kts 352°
2026-05-05 16:58 43.54923 6.95233 14 ft 14 kts 352°
2026-05-05 16:58 43.54993 6.95208 14 ft 4 kts 313°
2026-05-05 16:58 43.54994 6.95207 14 ft 0 kts 311°
2026-05-05 16:59 43.55002 6.95164 14 ft 6 kts 261°
2026-05-05 16:59 43.55002 6.95156 14 ft 0 kts 263°
2026-05-05 16:59 43.55000 6.95140 13 ft 7 kts 261°
2026-05-05 17:00 43.54978 6.95051 12 ft 9 kts 186°
2026-05-05 17:00 43.54969 6.95052 12 ft 0 kts 176°
2026-05-05 17:02 43.54832 6.95077 12 ft 50 kts 171°
2026-05-05 17:02 43.54304 6.95173 51 ft 96 kts 171°
2026-05-05 17:02 43.53585 6.95248 377 ft 111 kts 175°
2026-05-05 17:03 43.52793 6.95471 787 ft 120 kts 142°
2026-05-05 17:03 43.52233 6.96265 1186 ft 127 kts 133°
2026-05-05 17:04 43.51915 6.96742 1449 ft 129 kts 132°
2026-05-05 17:04 43.51297 6.97633 2047 ft 126 kts 139°
2026-05-05 17:04 43.50493 6.98113 2600 ft 127 kts 176°
2026-05-05 17:04 43.49671 6.97909 3272 ft 117 kts 200°
2026-05-05 17:05 43.48840 6.97951 3813 ft 130 kts 161°
2026-05-05 17:05 43.48127 6.98789 4387 ft 145 kts 121°
2026-05-05 17:05 43.47717 7.00097 5081 ft 143 kts 117°
2026-05-05 17:05 43.47215 7.01189 5820 ft 139 kts 129°
2026-05-05 17:06 43.46463 7.02402 5691 ft 190 kts 137°
2026-05-05 17:06 43.45485 7.03845 5607 ft 218 kts 135°
2026-05-05 17:06 43.44453 7.05464 5589 ft 229 kts 134°
2026-05-05 17:06 43.43406 7.07126 5586 ft 226 kts 134°
2026-05-05 17:07 43.42417 7.08682 5732 ft 204 kts 135°
2026-05-05 17:07 43.41556 7.10029 6362 ft 177 kts 136°
2026-05-05 17:07 43.40769 7.11258 6999 ft 169 kts 136°
2026-05-05 17:07 43.39998 7.12457 7660 ft 164 kts 137°
2026-05-05 17:08 43.39262 7.13606 8340 ft 155 kts 138°
2026-05-05 17:08 43.38558 7.14705 9020 ft 151 kts 139°
2026-05-05 17:08 43.38100 7.15419 9485 ft 149 kts 139°
2026-05-05 17:08 43.37214 7.16802 10365 ft 142 kts 140°
2026-05-05 17:09 43.36579 7.17794 11010 ft 134 kts 142°
2026-05-05 17:09 43.36171 7.18435 11450 ft 128 kts 142°
2026-05-05 17:09 43.35616 7.19308 12004 ft 124 kts 144°
2026-05-05 17:09 43.34999 7.20237 12378 ft 138 kts 144°
2026-05-05 17:10 43.34092 7.21624 12940 ft 156 kts 143°
2026-05-05 17:10 43.33589 7.22402 13235 ft 166 kts 143°
2026-05-05 17:10 43.32789 7.23642 13681 ft 180 kts 142°
2026-05-05 17:10 43.31942 7.24962 14072 ft 187 kts 142°
2026-05-05 17:11 43.31091 7.26296 14446 ft 183 kts 142°
2026-05-05 17:11 43.30270 7.27578 14786 ft 180 kts 143°
2026-05-05 17:11 43.29465 7.28911 15284 ft 179 kts 142°
2026-05-05 17:11 43.28653 7.30184 15969 ft 177 kts 143°
2026-05-05 17:12 43.27839 7.31462 16591 ft 178 kts 142°
2026-05-05 17:12 43.27026 7.32756 17233 ft 180 kts 142°
2026-05-05 17:12 43.26218 7.34050 17880 ft 181 kts 142°
2026-05-05 17:12 43.25395 7.35365 18472 ft 182 kts 142°
2026-05-05 17:13 43.24564 7.36692 19015 ft 184 kts 142°
2026-05-05 17:13 43.23725 7.38031 19574 ft 186 kts 143°
2026-05-05 17:13 43.22874 7.39389 20118 ft 188 kts 143°
2026-05-05 17:13 43.22016 7.40759 20678 ft 190 kts 143°
2026-05-05 17:14 43.21146 7.42145 21234 ft 193 kts 143°
2026-05-05 17:14 43.20265 7.43549 21789 ft 195 kts 144°
2026-05-05 17:14 43.19386 7.44950 22330 ft 197 kts 144°
2026-05-05 17:14 43.18481 7.46389 22830 ft 202 kts 144°
2026-05-05 17:15 43.17524 7.47894 23013 ft 222 kts 143°
2026-05-05 17:15 43.16448 7.49580 23019 ft 246 kts 142°
2026-05-05 17:15 43.15292 7.51427 23020 ft 263 kts 141°
2026-05-05 17:15 43.14076 7.53378 23017 ft 274 kts 140°
2026-05-05 17:16 43.12830 7.55364 23018 ft 282 kts 140°
2026-05-05 17:16 43.11580 7.57466 23010 ft 291 kts 134°
2026-05-05 17:16 43.10606 7.59961 22997 ft 303 kts 120°
2026-05-05 17:16 43.10017 7.62778 23006 ft 313 kts 107°
2026-05-05 17:17 43.09668 7.65731 23017 ft 314 kts 106°
2026-05-05 17:17 43.09312 7.68685 23017 ft 314 kts 107°
2026-05-05 17:17 43.08947 7.71632 23017 ft 314 kts 107°
2026-05-05 17:17 43.08515 7.74540 23012 ft 308 kts 114°
2026-05-05 17:18 43.07704 7.77169 23005 ft 299 kts 127°
2026-05-05 17:18 43.06544 7.79469 23004 ft 290 kts 139°
2026-05-05 17:18 43.05117 7.81348 23003 ft 280 kts 151°
2026-05-05 17:18 43.03504 7.82775 22999 ft 273 kts 160°
2026-05-05 17:19 43.01843 7.84029 23006 ft 273 kts 160°
2026-05-05 17:19 43.00181 7.85304 23005 ft 274 kts 159°
2026-05-05 17:19 42.98514 7.86581 23011 ft 274 kts 160°
2026-05-05 17:19 42.96872 7.87831 23004 ft 274 kts 160°
2026-05-05 17:20 42.95202 7.89102 23002 ft 273 kts 159°
2026-05-05 17:20 42.93540 7.90367 23006 ft 273 kts 159°
2026-05-05 17:20 42.91877 7.91633 22997 ft 273 kts 159°
2026-05-05 17:20 42.90215 7.92896 23006 ft 273 kts 159°
2026-05-05 17:21 42.88544 7.94166 23008 ft 273 kts 159°
2026-05-05 17:21 42.86904 7.95411 23003 ft 273 kts 159°
2026-05-05 17:21 42.85235 7.96678 23009 ft 273 kts 159°
2026-05-05 17:22 42.81916 7.99194 23003 ft 273 kts 159°
2026-05-05 17:22 42.80256 8.00452 23003 ft 273 kts 159°
2026-05-05 17:22 42.78590 8.01713 23003 ft 273 kts 159°
2026-05-05 17:22 42.76945 8.02958 23003 ft 273 kts 159°
2026-05-05 17:23 42.75279 8.04225 23003 ft 273 kts 159°
2026-05-05 17:23 42.73617 8.05490 22988 ft 273 kts 159°
2026-05-05 17:23 42.71955 8.06753 23003 ft 273 kts 159°
2026-05-05 17:23 42.70313 8.07998 23002 ft 274 kts 159°
2026-05-05 17:24 42.68646 8.09262 23003 ft 274 kts 159°
2026-05-05 17:24 42.66981 8.10525 23003 ft 274 kts 159°
2026-05-05 17:24 42.65305 8.11794 23003 ft 274 kts 159°
2026-05-05 17:24 42.63639 8.13055 23003 ft 274 kts 159°
2026-05-05 17:25 42.61988 8.14304 23007 ft 274 kts 159°
2026-05-05 17:25 42.60880 8.15143 23007 ft 274 kts 159°
2026-05-05 17:25 42.58645 8.16831 23007 ft 274 kts 159°
2026-05-05 17:25 42.56973 8.18095 23007 ft 274 kts 159°
2026-05-05 17:26 42.55332 8.19333 23007 ft 273 kts 159°
2026-05-05 17:26 42.53667 8.20588 23006 ft 273 kts 159°
2026-05-05 17:26 42.52000 8.21845 23006 ft 273 kts 159°
2026-05-05 17:26 42.50336 8.23099 23006 ft 273 kts 159°
2026-05-05 17:27 42.48671 8.24352 23003 ft 273 kts 159°
2026-05-05 17:27 42.47011 8.25601 23006 ft 273 kts 159°
2026-05-05 17:27 42.45368 8.26836 23006 ft 273 kts 159°
2026-05-05 17:27 42.43708 8.28084 23006 ft 273 kts 159°
2026-05-05 17:28 42.42041 8.29336 23006 ft 273 kts 159°
2026-05-05 17:28 42.40382 8.30581 23006 ft 273 kts 159°
2026-05-05 17:28 42.38715 8.31832 23006 ft 273 kts 159°
2026-05-05 17:28 42.37050 8.33079 23006 ft 273 kts 159°
2026-05-05 17:29 42.35404 8.34313 23008 ft 273 kts 159°
2026-05-05 17:29 42.33742 8.35557 23000 ft 273 kts 159°
2026-05-05 17:29 42.32077 8.36803 23000 ft 274 kts 159°
2026-05-05 17:29 42.30410 8.38050 22997 ft 274 kts 159°
2026-05-05 17:30 42.28737 8.39300 23005 ft 275 kts 159°
2026-05-05 17:30 42.27067 8.40547 23003 ft 275 kts 159°
2026-05-05 17:30 42.25411 8.41783 23003 ft 275 kts 159°
2026-05-05 17:30 42.23731 8.43037 23004 ft 275 kts 159°
2026-05-05 17:31 42.22045 8.44294 23008 ft 275 kts 159°
2026-05-05 17:31 42.20362 8.45547 23013 ft 275 kts 159°
2026-05-05 17:31 42.18696 8.46783 23013 ft 276 kts 159°
2026-05-05 17:31 42.17011 8.48033 23015 ft 276 kts 159°
2026-05-05 17:32 42.15330 8.49279 23017 ft 276 kts 159°
2026-05-05 17:32 42.13666 8.50513 23019 ft 276 kts 159°
2026-05-05 17:32 42.11981 8.51761 23025 ft 276 kts 159°
2026-05-05 17:32 42.10292 8.53012 23027 ft 276 kts 159°
2026-05-05 17:33 42.08605 8.54261 23003 ft 276 kts 159°
2026-05-05 17:33 42.06918 8.55508 23023 ft 277 kts 159°
2026-05-05 17:33 42.05227 8.56756 23024 ft 277 kts 159°
2026-05-05 17:33 42.03552 8.57994 23028 ft 278 kts 159°
2026-05-05 17:34 42.01854 8.59248 23028 ft 278 kts 159°
2026-05-05 17:34 42.00155 8.60501 23030 ft 278 kts 159°
2026-05-05 17:34 41.98455 8.61754 23031 ft 278 kts 159°
2026-05-05 17:34 41.96753 8.63008 23030 ft 278 kts 159°
2026-05-05 17:35 41.95051 8.64261 23038 ft 279 kts 159°
2026-05-05 17:35 41.93367 8.65499 23041 ft 279 kts 159°
2026-05-05 17:35 41.91659 8.66756 23042 ft 279 kts 159°
2026-05-05 17:35 41.89954 8.68010 23040 ft 279 kts 159°
2026-05-05 17:36 41.88247 8.69257 23038 ft 278 kts 159°
2026-05-05 17:36 41.86544 8.70510 23023 ft 278 kts 158°
2026-05-05 17:36 41.84794 8.71517 23036 ft 268 kts 175°
2026-05-05 17:36 41.82984 8.71722 23037 ft 263 kts 185°
2026-05-05 17:37 41.81145 8.71864 23033 ft 267 kts 181°
2026-05-05 17:37 41.79917 8.72088 23034 ft 270 kts 177°
2026-05-05 17:37 41.77435 8.72738 23043 ft 272 kts 175°
2026-05-05 17:37 41.75574 8.73195 23044 ft 272 kts 177°
2026-05-05 17:38 41.73728 8.73606 23036 ft 272 kts 177°
2026-05-05 17:38 41.71859 8.74029 23038 ft 270 kts 177°
2026-05-05 17:38 41.70131 8.74443 22928 ft 239 kts 177°
2026-05-05 17:38 41.68434 8.74830 21559 ft 259 kts 178°
2026-05-05 17:39 41.66589 8.75234 20486 ft 272 kts 176°
2026-05-05 17:39 41.64729 8.75676 19623 ft 271 kts 175°
2026-05-05 17:39 41.62883 8.76108 18718 ft 272 kts 176°
2026-05-05 17:39 41.61009 8.76538 17772 ft 272 kts 175°
2026-05-05 17:40 41.59138 8.76967 16704 ft 274 kts 175°
2026-05-05 17:40 41.57255 8.77399 15890 ft 269 kts 175°
2026-05-05 17:40 41.55449 8.77822 15151 ft 261 kts 175°
2026-05-05 17:40 41.53687 8.78224 14339 ft 259 kts 175°
2026-05-05 17:41 41.51913 8.78629 13538 ft 256 kts 175°
2026-05-05 17:41 41.50159 8.79032 12684 ft 253 kts 175°
2026-05-05 17:41 41.48432 8.79429 11868 ft 250 kts 175°
2026-05-05 17:41 41.46731 8.79819 11066 ft 247 kts 175°
2026-05-05 17:42 41.45068 8.80200 10289 ft 244 kts 175°
2026-05-05 17:42 41.43400 8.80582 9492 ft 241 kts 174°
2026-05-05 17:42 41.41750 8.80960 8668 ft 239 kts 174°
2026-05-05 17:42 41.40121 8.81333 7882 ft 236 kts 174°
2026-05-05 17:43 41.38507 8.81702 7112 ft 233 kts 174°
2026-05-05 17:43 41.36917 8.82065 6407 ft 229 kts 174°
2026-05-05 17:43 41.35386 8.82418 5960 ft 213 kts 174°
2026-05-05 17:43 41.34047 8.82728 5954 ft 194 kts 174°
2026-05-05 17:44 41.32665 8.83036 5963 ft 208 kts 174°
2026-05-05 17:44 41.31187 8.83369 5972 ft 222 kts 174°
2026-05-05 17:44 41.29633 8.83725 5974 ft 230 kts 174°
2026-05-05 17:44 41.28042 8.84090 5975 ft 233 kts 173°
2026-05-05 17:45 41.26450 8.84455 5971 ft 231 kts 174°
2026-05-05 17:45 41.24864 8.84816 5972 ft 231 kts 174°
2026-05-05 17:45 41.23282 8.85176 5971 ft 231 kts 174°
2026-05-05 17:45 41.21719 8.85531 5971 ft 230 kts 174°
2026-05-05 17:46 41.20137 8.85891 5971 ft 229 kts 174°
2026-05-05 17:46 41.18568 8.86249 5972 ft 229 kts 174°
2026-05-05 17:46 41.16995 8.86605 5971 ft 229 kts 174°
2026-05-05 17:46 41.15422 8.86963 5972 ft 229 kts 174°
2026-05-05 17:47 41.13850 8.87319 5970 ft 229 kts 174°
2026-05-05 17:47 41.12297 8.87673 5971 ft 228 kts 174°
2026-05-05 17:47 41.10731 8.88027 5971 ft 228 kts 174°
2026-05-05 17:47 41.09164 8.88383 5972 ft 229 kts 174°
2026-05-05 17:48 41.07593 8.88739 5977 ft 229 kts 174°
2026-05-05 17:48 41.06021 8.89094 5975 ft 229 kts 174°
2026-05-05 17:48 41.04466 8.89447 5975 ft 229 kts 174°
2026-05-05 17:48 41.02895 8.89802 5976 ft 228 kts 174°
2026-05-05 17:49 41.01322 8.90158 5973 ft 229 kts 174°
2026-05-05 17:49 40.99747 8.90513 5973 ft 228 kts 173°
2026-05-05 17:49 40.98199 8.90865 5974 ft 229 kts 174°
2026-05-05 17:49 40.96622 8.91219 5969 ft 230 kts 174°
2026-05-05 17:50 40.95045 8.91573 5972 ft 230 kts 174°
2026-05-05 17:50 40.93463 8.91932 5971 ft 231 kts 174°
2026-05-05 17:50 40.91879 8.92291 5973 ft 230 kts 174°
2026-05-05 17:50 40.90315 8.92643 5974 ft 230 kts 174°
2026-05-05 17:51 40.88736 8.92998 5973 ft 229 kts 174°
2026-05-05 17:51 40.87158 8.93354 5976 ft 230 kts 174°
2026-05-05 17:51 40.85580 8.93709 5975 ft 230 kts 174°
2026-05-05 17:51 40.84002 8.94064 5978 ft 230 kts 174°
2026-05-05 17:52 40.82422 8.94418 5986 ft 231 kts 175°
2026-05-05 17:52 40.80842 8.94776 5987 ft 230 kts 174°
2026-05-05 17:52 40.79287 8.95127 5982 ft 227 kts 174°
2026-05-05 17:52 40.77722 8.95472 5975 ft 229 kts 174°
2026-05-05 17:53 40.76139 8.95827 5979 ft 232 kts 174°
2026-05-05 17:53 40.74574 8.96408 5975 ft 237 kts 160°
2026-05-05 17:53 40.73165 8.97523 5971 ft 233 kts 148°
2026-05-05 17:53 40.71886 8.98741 5971 ft 227 kts 149°
2026-05-05 17:54 40.70596 8.99932 5970 ft 225 kts 150°
2026-05-05 17:54 40.69312 9.01118 5971 ft 224 kts 149°
2026-05-05 17:54 40.68030 9.02311 5970 ft 226 kts 148°
2026-05-05 17:54 40.67026 9.03897 5968 ft 235 kts 121°
2026-05-05 17:55 40.66610 9.06005 5973 ft 243 kts 95°
2026-05-05 17:55 40.66932 9.08206 5967 ft 249 kts 68°
2026-05-05 17:55 40.67841 9.10133 5980 ft 247 kts 56°
2026-05-05 17:55 40.68827 9.11999 5984 ft 247 kts 56°
2026-05-05 17:56 40.69786 9.13841 5982 ft 247 kts 57°
2026-05-05 17:56 40.70756 9.15710 5984 ft 246 kts 54°
2026-05-05 17:56 40.71831 9.17474 5983 ft 246 kts 51°
2026-05-05 17:56 40.72861 9.19280 5983 ft 245 kts 56°
2026-05-05 17:57 40.73834 9.21135 5984 ft 247 kts 56°
2026-05-05 17:57 40.74812 9.22999 5778 ft 253 kts 56°
2026-05-05 17:57 40.75817 9.24920 5391 ft 251 kts 56°
2026-05-05 17:57 40.76742 9.26681 5025 ft 218 kts 56°
2026-05-05 17:58 40.77591 9.28300 4701 ft 211 kts 56°
2026-05-05 17:58 40.78386 9.29816 4396 ft 192 kts 57°
2026-05-05 17:58 40.79086 9.31148 4106 ft 160 kts 57°
2026-05-05 17:58 40.79500 9.31935 3946 ft 155 kts 57°
2026-05-05 17:59 40.80140 9.33151 3695 ft 166 kts 56°
2026-05-05 17:59 40.81034 9.34875 3362 ft 176 kts 57°
2026-05-05 17:59 40.81728 9.36202 3085 ft 175 kts 57°
2026-05-05 17:59 40.82415 9.37507 2816 ft 172 kts 57°
2026-05-05 18:00 40.82877 9.38391 2626 ft 173 kts 57°
2026-05-05 18:00 40.83556 9.39691 2358 ft 170 kts 55°
2026-05-05 18:00 40.84195 9.40922 2101 ft 156 kts 55°
2026-05-05 18:00 40.84730 9.41946 1874 ft 127 kts 53°
2026-05-05 18:01 40.85246 9.42924 1695 ft 131 kts 52°
2026-05-05 18:01 40.85735 9.43860 1493 ft 115 kts 53°
2026-05-05 18:01 40.86168 9.44690 1323 ft 105 kts 53°
2026-05-05 18:01 40.86556 9.45489 1163 ft 102 kts 55°
2026-05-05 18:02 40.86939 9.46258 1021 ft 98 kts 53°
2026-05-05 18:02 40.87362 9.47024 891 ft 107 kts 53°
2026-05-05 18:02 40.87769 9.47802 704 ft 98 kts 52°
2026-05-05 18:02 40.88167 9.48558 548 ft 102 kts 52°
2026-05-05 18:03 40.88578 9.49336 395 ft 103 kts 52°
2026-05-05 18:03 40.88982 9.50085 229 ft 100 kts 54°
2026-05-05 18:03 40.89376 9.50834 71 ft 97 kts 55°
2026-05-05 18:03 40.89738 9.51525 31 ft 81 kts 55°
2026-05-05 18:04 40.90006 9.52028 29 ft 47 kts 56°
2026-05-05 18:04 40.90208 9.52413 32 ft 55 kts 55°
2026-05-05 18:04 40.90404 9.52691 31 ft 21 kts 354°
2026-05-05 18:04 40.90449 9.52626 31 ft 0 kts 272°
2026-05-05 18:05 40.90449 9.52625 31 ft 0 kts 272°
2026-05-05 18:05 40.90449 9.52626 31 ft 0 kts 272°
2026-05-05 18:06 40.90449 9.52625 31 ft 0 kts 272°
2026-05-05 18:06 40.90452 9.52499 31 ft 16 kts 250°
2026-05-05 18:06 40.90382 9.52358 31 ft 22 kts 239°
2026-05-05 18:07 40.90291 9.52183 31 ft 27 kts 236°
2026-05-05 18:07 40.90186 9.51982 31 ft 23 kts 235°
2026-05-05 18:07 40.90084 9.51786 31 ft 25 kts 234°
2026-05-05 18:07 40.89993 9.51613 31 ft 22 kts 237°
2026-05-05 18:08 40.89908 9.51451 31 ft 23 kts 236°
2026-05-05 18:08 40.89792 9.51226 31 ft 34 kts 234°
2026-05-05 18:08 40.89682 9.51021 31 ft 27 kts 236°
2026-05-05 18:08 40.89587 9.50839 31 ft 21 kts 234°
2026-05-05 18:09 40.89611 9.50709 30 ft 17 kts 326°
2026-05-05 18:09 40.89614 9.50598 30 ft 20 kts 236°
2026-05-05 18:09 40.89583 9.50540 30 ft 8 kts 235°
2026-05-05 18:09 40.89554 9.50530 30 ft 5 kts 148°
2026-05-05 18:10 40.89552 9.50532 30 ft 0 kts 146°